When you browse on this site, cookies collect data to enhance your experience and personalize the content and advertising you see.
Visit our Privacy Policy to learn more. By continuing to use the site, you agree to this use of cookies and data.
  • In Germany
  • List of Countries
  • For 7 days
  • Water Temperature
  • Satellite Maps
  • Weather Map
  • Weather Widgets
  • user-avatar
    Login

    Hourly Weather Northallerton

    Today, 15 December, Saturday

    Time Temperature Precipitation Wind Pressure Humidity
    00:00 -1°C° 0 mm 5 mps 761 mmHg 83%
    01:00 -2°C° 0 mm 6 mps 761 mmHg 81%
    02:00 -2°C° 0 mm 6 mps 760 mmHg 79%
    03:00 -2°C° 0 mm 7 mps 760 mmHg 78%
    04:00 -2°C° 0 mm 7 mps 759 mmHg 77%
    05:00 -2°C° 0 mm 7 mps 758 mmHg 77%
    06:00 -3°C° 0 mm 7 mps 758 mmHg 76%
    07:00 -4°C° 0 mm 8 mps 757 mmHg 75%
    08:00 -4°C° 0 mm 8 mps 757 mmHg 74%
    09:00 -4°C° 0 mm 9 mps 756 mmHg 72%
    10:00 -3°C° 0 mm 9 mps 755 mmHg 72%
    11:00 -3°C° 0 mm 9 mps 754 mmHg 72%
    12:00 -3°C° 0 mm 10 mps 753 mmHg 72%
    13:00 -2°C° 0.1 mm 10 mps 752 mmHg 73%
    14:00 -2°C° 0.1 mm 11 mps 750 mmHg 74%
    15:00 -2°C° 0.1 mm 11 mps 749 mmHg 75%
    16:00 -2°C° 2.5 mm 11 mps 747 mmHg 80%
    17:00 -2°C° 2.5 mm 11 mps 746 mmHg 85%
    18:00 -2°C° 2.5 mm 11 mps 744 mmHg 90%
    19:00 -2°C° 1.3 mm 11 mps 743 mmHg 91%
    20:00 0°C° 1.3 mm 10 mps 742 mmHg 93%
    21:00 0°C° 1.3 mm 9 mps 741 mmHg 95%
    22:00 +1°C° 0.3 mm 8 mps 740 mmHg 96%
    23:00 +1°C° 0.3 mm 8 mps 740 mmHg 97%

    Tomorrow, 16 December, Sunday

    Time Temperature Precipitation Wind Pressure Humidity
    00:00 +3°C° 0.3 mm 7 mps 740 mmHg 97%
    01:00 +2°C° 0.4 mm 8 mps 740 mmHg 93%
    02:00 +2°C° 0.4 mm 9 mps 741 mmHg 88%
    03:00 +2°C° 0.4 mm 10 mps 741 mmHg 83%
    04:00 +2°C° 0.1 mm 9 mps 742 mmHg 84%
    05:00 +3°C° 0.1 mm 7 mps 743 mmHg 85%
    06:00 +3°C° 0.1 mm 5 mps 744 mmHg 86%
    07:00 +2°C° 0 mm 5 mps 745 mmHg 87%
    08:00 +2°C° 0 mm 5 mps 746 mmHg 88%
    09:00 +3°C° 0 mm 4 mps 747 mmHg 89%
    10:00 +3°C° 0 mm 4 mps 747 mmHg 89%
    11:00 +4°C° 0 mm 4 mps 747 mmHg 89%
    12:00 +4°C° 0 mm 4 mps 748 mmHg 89%
    13:00 +4°C° 0 mm 4 mps 748 mmHg 89%
    14:00 +4°C° 0 mm 4 mps 748 mmHg 90%
    15:00 +3°C° 0 mm 3 mps 748 mmHg 90%
    16:00 +3°C° 0 mm 3 mps 749 mmHg 91%
    17:00 +3°C° 0 mm 3 mps 749 mmHg 91%
    18:00 +2°C° 0 mm 3 mps 749 mmHg 92%
    19:00 +2°C° 0 mm 3 mps 750 mmHg 92%
    20:00 +2°C° 0 mm 3 mps 750 mmHg 92%
    21:00 +2°C° 0 mm 3 mps 750 mmHg 92%
    22:00 +2°C° 0 mm 3 mps 751 mmHg 92%
    23:00 +2°C° 0 mm 3 mps 751 mmHg 92%

    Day after tomorrow, 17 December, Monday

    Time Temperature Precipitation Wind Pressure Humidity
    00:00 +2°C° 0 mm 3 mps 751 mmHg 92%
    01:00 +2°C° 0 mm 3 mps 752 mmHg 91%
    02:00 +2°C° 0 mm 3 mps 752 mmHg 91%
    03:00 +2°C° 0 mm 3 mps 753 mmHg 91%
    04:00 +2°C° 0 mm 3 mps 753 mmHg 91%
    05:00 +2°C° 0 mm 3 mps 754 mmHg 91%
    06:00 +2°C° 0 mm 3 mps 754 mmHg 91%
    07:00 +2°C° 0 mm 3 mps 755 mmHg 90%
    08:00 +2°C° 0 mm 3 mps 755 mmHg 90%
    09:00 +2°C° 0 mm 3 mps 756 mmHg 90%
    10:00 +3°C° 0 mm 3 mps 756 mmHg 90%
    11:00 +3°C° 0 mm 3 mps 756 mmHg 89%
    12:00 +4°C° 0 mm 4 mps 756 mmHg 88%
    13:00 +4°C° 0 mm 4 mps 756 mmHg 89%
    14:00 +4°C° 0 mm 4 mps 756 mmHg 89%
    15:00 +4°C° 0 mm 4 mps 756 mmHg 90%
    16:00 +3°C° 0 mm 5 mps 756 mmHg 91%
    17:00 +3°C° 0 mm 5 mps 755 mmHg 92%
    18:00 +4°C° 0 mm 6 mps 755 mmHg 92%
    19:00 +4°C° 0.2 mm 6 mps 755 mmHg 92%
    20:00 +5°C° 0.2 mm 7 mps 755 mmHg 92%
    21:00 +5°C° 0.2 mm 7 mps 755 mmHg 92%
    22:00 +6°C° 0 mm 7 mps 754 mmHg 91%
    23:00 +6°C° 0 mm 8 mps 754 mmHg 91%

    18 December, Tuesday

    Time Temperature Precipitation Wind Pressure Humidity
    00:00 +6°C° 0 mm 8 mps 754 mmHg 90%
    01:00 +7°C° 0 mm 8 mps 753 mmHg 89%
    02:00 +7°C° 0 mm 8 mps 753 mmHg 89%
    03:00 +7°C° 0 mm 8 mps 753 mmHg 88%
    04:00 +7°C° 0 mm 8 mps 752 mmHg 87%
    05:00 +7°C° 0 mm 9 mps 752 mmHg 86%
    06:00 +7°C° 0 mm 9 mps 751 mmHg 85%
    07:00 +7°C° 0 mm 9 mps 751 mmHg 84%
    08:00 +7°C° 0 mm 10 mps 750 mmHg 83%
    09:00 +7°C° 0 mm 10 mps 750 mmHg 82%
    10:00 +7°C° 0.3 mm 11 mps 749 mmHg 81%
    11:00 +7°C° 0.3 mm 11 mps 748 mmHg 79%
    12:00 +7°C° 0.3 mm 11 mps 747 mmHg 77%
    13:00 +6°C° 0.9 mm 11 mps 747 mmHg 77%
    14:00 +6°C° 0.9 mm 11 mps 746 mmHg 77%
    15:00 +6°C° 0.9 mm 11 mps 745 mmHg 77%
    16:00 +6°C° 0.8 mm 10 mps 745 mmHg 78%
    17:00 +6°C° 0.8 mm 10 mps 745 mmHg 80%
    18:00 +6°C° 0.8 mm 10 mps 744 mmHg 81%
    19:00 +5°C° 1.6 mm 10 mps 744 mmHg 83%
    20:00 +5°C° 1.6 mm 9 mps 744 mmHg 84%
    21:00 +5°C° 1.6 mm 9 mps 744 mmHg 85%
    22:00 +5°C° 1.4 mm 8 mps 744 mmHg 87%
    23:00 +5°C° 1.4 mm 7 mps 744 mmHg 88%

    19 December, Wednesday

    Time Temperature Precipitation Wind Pressure Humidity
    00:00 +5°C° 1.4 mm 6 mps 743 mmHg 90%
    01:00 +5°C° 0.1 mm 5 mps 744 mmHg 89%
    02:00 +5°C° 0.1 mm 5 mps 745 mmHg 88%
    03:00 +5°C° 0.1 mm 4 mps 745 mmHg 87%
    04:00 +5°C° 0 mm 4 mps 746 mmHg 87%
    05:00 +4°C° 0 mm 4 mps 747 mmHg 86%
    06:00 +4°C° 0 mm 4 mps 747 mmHg 86%
    07:00 +3°C° 0 mm 5 mps 748 mmHg 85%
    08:00 +3°C° 0 mm 5 mps 749 mmHg 84%
    09:00 +3°C° 0 mm 5 mps 749 mmHg 84%
    10:00 +3°C° 0 mm 6 mps 750 mmHg 82%
    11:00 +4°C° 0 mm 6 mps 750 mmHg 79%
    12:00 +5°C° 0 mm 6 mps 750 mmHg 77%
    13:00 +5°C° 0 mm 6 mps 750 mmHg 78%
    14:00 +4°C° 0 mm 6 mps 750 mmHg 79%
    15:00 +4°C° 0 mm 6 mps 750 mmHg 80%
    16:00 +4°C° 0 mm 6 mps 751 mmHg 82%
    17:00 +4°C° 0 mm 6 mps 751 mmHg 83%
    18:00 +3°C° 0 mm 6 mps 751 mmHg 85%
    19:00 +3°C° 0 mm 6 mps 751 mmHg 85%
    20:00 +3°C° 0 mm 6 mps 751 mmHg 86%
    21:00 +3°C° 0 mm 6 mps 752 mmHg 86%
    22:00 +3°C° 0 mm 6 mps 752 mmHg 87%
    23:00 +3°C° 0 mm 6 mps 752 mmHg 87%

    20 December, Thursday

    Time Temperature Precipitation Wind Pressure Humidity
    00:00 +3°C° 0 mm 6 mps 752 mmHg 87%
    01:00 +3°C° 0 mm 5 mps 752 mmHg 89%
    02:00 +3°C° 0 mm 5 mps 752 mmHg 90%
    03:00 +3°C° 0 mm 4 mps 753 mmHg 91%
    04:00 +4°C° 0.1 mm 4 mps 753 mmHg 92%
    05:00 +4°C° 0.1 mm 4 mps 753 mmHg 92%
    06:00 +4°C° 0.1 mm 4 mps 754 mmHg 92%
    07:00 +4°C° 0 mm 3 mps 754 mmHg 93%
    08:00 +4°C° 0 mm 3 mps 755 mmHg 93%
    09:00 +4°C° 0 mm 3 mps 756 mmHg 93%
    10:00 +5°C° 0 mm 3 mps 756 mmHg 91%
    11:00 +5°C° 0 mm 3 mps 756 mmHg 88%
    12:00 +7°C° 0 mm 3 mps 757 mmHg 86%
    13:00 +7°C° 0 mm 3 mps 757 mmHg 87%
    14:00 +7°C° 0 mm 3 mps 757 mmHg 88%
    15:00 +6°C° 0 mm 2 mps 758 mmHg 89%
    16:00 +6°C° 0 mm 2 mps 758 mmHg 90%
    17:00 +5°C° 0 mm 2 mps 759 mmHg 91%
    18:00 +5°C° 0 mm 2 mps 759 mmHg 92%
    19:00 +4°C° 0 mm 2 mps 759 mmHg 92%
    20:00 +4°C° 0 mm 2 mps 760 mmHg 93%
    21:00 +4°C° 0 mm 2 mps 760 mmHg 93%
    22:00 +4°C° 0 mm 2 mps 760 mmHg 93%
    23:00 +4°C° 0 mm 2 mps 760 mmHg 93%
    Show more